FW8901 Weather Reports


Display with metric or nautical units.
time (UTC)temp
F
wind
direction
speed
MPH
gust
MPH
rain 1hr
in
rain 24hr
in
rain mn
in
humidity
%
barometer
mb
20260902014047 82 0.0 0.0 0.00 0.00 0.00 81 1015.9
20260902013547 82 0.0 0.0 0.00 0.00 0.00 81 1015.9
20260902013104 83 0.0 0.0 0.00 0.00 0.00 80 1015.9
20260902012549 83 0.0 0.0 0.00 0.00 0.00 80 1015.7
20260902012047 83 0.0 0.0 0.00 0.00 0.00 80 1015.6
20260902011600 83 0.0 0.0 0.00 0.00 0.00 80 1015.6
20260902011048 83 0.0 0.0 0.00 0.00 0.00 79 1015.4
20260902010548 83 0.0 0.0 0.00 0.00 0.00 79 1015.3
20260902010106 84 0.0 0.0 0.00 0.00 0.00 79 1015.3
20260902005548 84 0.0 0.0 0.00 0.00 0.00 79 1015.3
20260902005050 84 0.0 0.0 0.00 0.00 0.00 79 1015.2
20260902004655 84 0.0 0.0 0.00 0.00 0.00 79 1015.0
20260902004047 85 0.0 0.0 0.00 0.00 0.00 78 1015.0
20260902003548 85 0.0 0.0 0.00 0.00 0.00 78 1014.8
20260902003105 85 0.0 0.0 0.00 0.00 0.00 78 1014.8
20260902002553 85 0.0 0.0 0.00 0.00 0.00 77 1014.7
20260902002048 85 0.0 0.0 0.00 0.00 0.00 77 1014.7
20260902001635 86 0.0 0.0 0.00 0.00 0.00 76 1014.7
20260902001058 86 0.0 0.0 0.00 0.00 0.00 76 1014.6
20260902000549 86 0.0 0.0 0.00 0.00 0.00 76 1014.6
20260902000103 86 0.0 0.0 0.00 0.00 0.00 76 1014.5
20260901235548 87 0.0 0.0 0.00 0.00 0.00 75 1014.5
20260901235045 87 0.0 0.0 0.00 0.00 0.00 75 1014.6
20260901234556 87 0.0 0.0 0.00 0.00 0.00 75 1014.5
20260901234047 87 0.0 0.0 0.00 0.00 0.00 75 1014.6
20260901233552 88 0.0 0.0 0.00 0.00 0.00 75 1014.6
20260901233106 88 0.0 0.0 0.00 0.00 0.00 74 1014.7
20260901232548 88 0.0 0.0 0.00 0.00 0.00 74 1014.7
20260901232048 88 0.0 0.0 0.00 0.00 0.00 73 1014.7
20260901231559 88 0.0 0.0 0.00 0.00 0.00 73 1014.7
20260901231047 89 0.0 0.0 0.00 0.00 0.00 73 1014.9
20260901230549 89 0.0 0.0 0.00 0.00 0.00 73 1014.7
20260901230104 89 0.0 0.0 0.00 0.00 0.00 72 1014.9
20260901225551 89 0.0 0.0 0.00 0.00 0.00 72 1014.8
20260901225049 89 0.0 0.0 0.00 0.00 0.00 72 1014.9
20260901224611 89 0.0 0.0 0.00 0.00 0.00 71 1015.0
20260901224050 89 0.0 0.0 0.00 0.00 0.00 71 1015.0
20260901223600 89 0.0 0.0 0.00 0.00 0.00 72 1015.0
20260901223105 89 0.0 0.0 0.00 0.00 0.00 71 1015.0
20260901222547 89 0.0 0.0 0.00 0.00 0.00 71 1015.1
20260901222048 89 0.0 0.0 0.00 0.00 0.00 72 1015.1
20260901221602 89 0.0 0.0 0.00 0.00 0.00 66 1015.2
20260901221056 89 0.0 0.0 0.00 0.00 0.00 68 1015.2
20260901220549 89 0.0 0.0 0.00 0.00 0.00 69 1015.4
20260901220107 89 0.0 0.0 0.00 0.00 0.00 67 1015.4
20260901215550 90 0.0 0.0 0.00 0.00 0.00 67 1015.3
20260901215046 90 0.0 0.0 0.00 0.00 0.00 66 1015.4
20260901214604 90 0.0 0.0 0.00 0.00 0.00 67 1015.4
20260901214048 91 0.0 0.0 0.00 0.00 0.00 63 1015.5
20260901213547 91 0.0 0.0 0.00 0.00 0.00 61 1015.4
20260901213122 91 0.0 0.0 0.00 0.00 0.00 63 1015.4
20260901212547 91 0.0 0.0 0.00 0.00 0.00 61 1015.3
20260901212047 91 0.0 0.0 0.00 0.00 0.00 60 1015.3
20260901211558 91 0.0 0.0 0.00 0.00 0.00 60 1015.2
20260901211100 91 0.0 0.0 0.00 0.00 0.00 61 1015.1
20260901210547 92 0.0 0.0 0.00 0.00 0.00 61 1015.2
20260901210118 92 0.0 0.0 0.00 0.00 0.00 58 1015.1
20260901205548 92 0.0 0.0 0.00 0.00 0.00 62 1015.2
20260901205048 93 0.0 0.0 0.00 0.00 0.00 58 1015.2
20260901204606 93 0.0 0.0 0.00 0.00 0.00 59 1015.4
20260901204052 93 0.0 0.0 0.00 0.00 0.00 61 1015.3
20260901203547 94 0.0 0.0 0.00 0.00 0.00 55 1015.3
20260901203102 94 0.0 0.0 0.00 0.00 0.00 56 1015.3
20260901202548 94 0.0 0.0 0.00 0.00 0.00 53 1015.4
20260901202047 94 0.0 0.0 0.00 0.00 0.00 52 1015.5
20260901201608 95 0.0 0.0 0.00 0.00 0.00 51 1015.4
20260901201059 96 0.0 0.0 0.00 0.00 0.00 50 1015.4
20260901200547 95 0.0 0.0 0.00 0.00 0.00 51 1015.6
20260901200116 95 0.0 0.0 0.00 0.00 0.00 49 1015.7
20260901195547 97 0.0 0.0 0.00 0.00 0.00 49 1015.8
20260901195049 97 0.0 0.0 0.00 0.00 0.00 48 1015.7
20260901194604 95 0.0 0.0 0.00 0.00 0.00 50 1015.7
20260901194047 96 0.0 0.0 0.00 0.00 0.00 46 1015.8
20260901193548 96 0.0 0.0 0.00 0.00 0.00 48 1015.9
20260901193103 97 0.0 0.0 0.00 0.00 0.00 47 1015.9
20260901192548 98 0.0 0.0 0.00 0.00 0.00 47 1016.0
20260901192052 97 0.0 0.0 0.00 0.00 0.00 47 1016.2
20260901191558 96 0.0 0.0 0.00 0.00 0.00 49 1016.3
20260901191059 96 0.0 0.0 0.00 0.00 0.00 52 1016.4
20260901190547 96 0.0 0.0 0.00 0.00 0.00 50 1016.3
20260901190109 96 0.0 0.0 0.00 0.00 0.00 50 1016.4
20260901185548 96 0.0 0.0 0.00 0.00 0.00 51 1016.5
20260901185047 96 0.0 0.0 0.00 0.00 0.00 50 1016.5
20260901184610 96 0.0 0.0 0.00 0.00 0.00 50 1016.6
20260901184047 96 0.0 0.0 0.00 0.00 0.00 49 1016.5
20260901183546 96 0.0 0.0 0.00 0.00 0.00 49 1016.5
20260901183109 96 0.0 0.0 0.00 0.00 0.00 49 1016.4
20260901182547 96 0.0 0.0 0.00 0.00 0.00 48 1016.4
20260901182047 96 0.0 0.0 0.00 0.00 0.00 51 1016.4
20260901181603 96 0.0 0.0 0.00 0.00 0.00 51 1016.5
20260901181047 95 0.0 0.0 0.00 0.00 0.00 51 1016.6
20260901180549 96 0.0 0.0 0.00 0.00 0.00 50 1016.5
20260901180059 96 0.0 0.0 0.00 0.00 0.00 52 1016.6
20260901175547 95 0.0 0.0 0.00 0.00 0.00 55 1016.6
20260901175050 95 0.0 0.0 0.00 0.00 0.00 57 1016.6
20260901174607 94 0.0 0.0 0.00 0.00 0.00 54 1016.5
20260901174047 94 0.0 0.0 0.00 0.00 0.00 57 1016.6
20260901173546 94 0.0 0.0 0.00 0.00 0.00 56 1016.6
20260901173111 94 0.0 0.0 0.00 0.00 0.00 54 1016.6
20260901172549 93 0.0 0.0 0.00 0.00 0.00 55 1016.7
20260901172047 93 0.0 0.0 0.00 0.00 0.00 57 1016.8
20260901171604 93 0.0 0.0 0.00 0.00 0.00 56 1016.8
20260901171046 93 0.0 0.0 0.00 0.00 0.00 56 1016.9
20260901170547 93 0.0 0.0 0.00 0.00 0.00 57 1016.8
20260901170109 93 0.0 0.0 0.00 0.00 0.00 57 1016.9
20260901165547 92 0.0 0.0 0.00 0.00 0.00 60 1017.0
20260901165047 91 0.0 0.0 0.00 0.00 0.00 60 1016.9
20260901164607 91 0.0 0.0 0.00 0.00 0.00 60 1017.0
20260901164047 91 0.0 0.0 0.00 0.00 0.00 61 1017.0
20260901163547 91 0.0 0.0 0.00 0.00 0.00 59 1016.9
20260901163115 91 0.0 0.0 0.00 0.00 0.00 59 1017.0
20260901162550 90 0.0 0.0 0.00 0.00 0.00 60 1017.0
20260901162049 90 0.0 0.0 0.00 0.00 0.00 61 1017.2
20260901161627 91 0.0 0.0 0.00 0.00 0.00 60 1017.3
20260901161048 90 0.0 0.0 0.00 0.00 0.00 60 1017.3
20260901160551 90 0.0 0.0 0.00 0.00 0.00 60 1017.3
20260901160104 89 0.0 0.0 0.00 0.00 0.00 61 1017.3
20260901155548 90 0.0 0.0 0.00 0.00 0.00 62 1017.4
20260901155048 88 0.0 0.0 0.00 0.00 0.00 62 1017.4
20260901154620 89 0.0 0.0 0.00 0.00 0.00 61 1017.4
20260901154047 88 0.0 0.0 0.00 0.00 0.00 66 1017.3
20260901153552 88 0.0 0.0 0.00 0.00 0.00 66 1017.4
20260901153110 87 0.0 0.0 0.00 0.00 0.00 68 1017.5
20260901152547 86 0.0 0.0 0.00 0.00 0.00 69 1017.7
20260901152129 86 0.0 0.0 0.00 0.00 0.00 67 1017.7
20260901151607 86 0.0 0.0 0.00 0.00 0.00 69 1017.7
20260901151046 85 0.0 0.0 0.00 0.00 0.00 71 1017.8
20260901150556 85 0.0 0.0 0.00 0.00 0.00 72 1017.7
20260901150121 85 0.0 0.0 0.00 0.00 0.00 71 1017.8
20260901145548 85 0.0 0.0 0.00 0.00 0.00 73 1017.9
20260901145047 84 0.0 0.0 0.00 0.00 0.00 71 1017.9
20260901144606 83 0.0 0.0 0.00 0.00 0.00 75 1017.9
20260901144049 83 0.0 0.0 0.00 0.00 0.00 77 1018.0
20260901143543 83 0.0 0.0 0.00 0.00 0.00 78 1018.1
20260901143102 83 0.0 0.0 0.00 0.00 0.00 76 1018.0
20260901142544 83 0.0 0.0 0.00 0.00 0.00 79 1018.0
20260901142045 83 0.0 0.0 0.00 0.00 0.00 76 1018.1
20260901141609 82 0.0 0.0 0.00 0.00 0.00 78 1018.1
20260901141047 81 0.0 0.0 0.00 0.00 0.00 79 1018.1
20260901140545 80 0.0 0.0 0.00 0.00 0.00 82 1018.1
20260901140059 79 0.0 0.0 0.00 0.00 0.00 84 1018.0
20260901135543 79 0.0 0.0 0.00 0.00 0.00 83 1017.9
20260901135047 78 0.0 0.0 0.00 0.00 0.00 85 1018.1
20260901134603 77 0.0 0.0 0.00 0.00 0.00 88 1018.0
20260901134043 77 0.0 0.0 0.00 0.00 0.00 88 1018.0
20260901133543 77 0.0 0.0 0.00 0.00 0.00 88 1018.0
20260901133100 77 0.0 0.0 0.00 0.00 0.00 89 1018.0
20260901132547 76 0.0 0.0 0.00 0.00 0.00 92 1018.1
20260901132048 75 0.0 0.0 0.00 0.00 0.00 93 1018.1
20260901131556 75 0.0 0.0 0.00 0.00 0.00 93 1018.1
20260901131044 75 0.0 0.0 0.00 0.00 0.00 93 1018.1
20260901130546 74 0.0 0.0 0.00 0.00 0.00 93 1018.2
20260901130105 74 0.0 0.0 0.00 0.00 0.00 94 1018.3
20260901125546 74 0.0 0.0 0.00 0.00 0.00 94 1018.2
20260901125048 74 0.0 0.0 0.00 0.00 0.00 94 1018.3
20260901124603 74 0.0 0.0 0.00 0.00 0.00 94 1018.2
20260901124043 74 0.0 0.0 0.00 0.00 0.00 94 1018.2
20260901123544 74 0.0 0.0 0.00 0.00 0.00 94 1018.2
20260901123106 73 0.0 0.0 0.00 0.00 0.00 94 1018.1
20260901122546 73 0.0 0.0 0.00 0.00 0.00 94 1018.1
20260901122048 73 0.0 0.0 0.00 0.00 0.00 94 1018.1
20260901121632 73 0.0 0.0 0.00 0.00 0.00 94 1018.0
20260901121050 73 0.0 0.0 0.00 0.00 0.00 94 1018.1
20260901120600 73 0.0 0.0 0.00 0.00 0.00 94 1018.1
20260901120114 73 0.0 0.0 0.00 0.00 0.00 93 1018.0
20260901115544 73 0.0 0.0 0.00 0.00 0.00 94 1018.0
20260901115044 73 0.0 0.0 0.00 0.00 0.00 93 1018.0
20260901114559 72 0.0 0.0 0.00 0.00 0.00 93 1018.0
20260901114043 72 0.0 0.0 0.00 0.00 0.00 93 1017.9
20260901113547 72 0.0 0.0 0.00 0.00 0.00 93 1017.9
20260901113103 72 0.0 0.0 0.00 0.00 0.00 93 1017.9
20260901112547 72 0.0 0.0 0.00 0.00 0.00 93 1017.9
20260901112048 72 0.0 0.0 0.00 0.00 0.00 93 1017.9
20260901111604 72 0.0 0.0 0.00 0.00 0.00 93 1017.8
20260901111043 72 0.0 0.0 0.00 0.00 0.00 93 1017.8
20260901110557 72 0.0 0.0 0.00 0.00 0.00 93 1017.7
20260901110058 72 0.0 0.0 0.00 0.00 0.00 93 1017.6
20260901105547 72 0.0 0.0 0.00 0.00 0.00 93 1017.5
20260901105048 72 0.0 0.0 0.00 0.00 0.00 93 1017.6
20260901104556 72 0.0 0.0 0.00 0.00 0.00 93 1017.6
20260901104043 72 0.0 0.0 0.00 0.00 0.00 93 1017.5
20260901103555 72 0.0 0.0 0.00 0.00 0.00 93 1017.4
20260901103108 72 0.0 0.0 0.00 0.00 0.00 93 1017.3
20260901102543 72 0.0 0.0 0.00 0.00 0.00 93 1017.3
20260901102043 72 0.0 0.0 0.00 0.00 0.00 93 1017.4
20260901101600 73 0.0 0.0 0.00 0.00 0.00 93 1017.4
20260901101043 73 0.0 0.0 0.00 0.00 0.00 93 1017.5
20260901100550 73 0.0 0.0 0.00 0.00 0.00 93 1017.5
20260901100132 73 0.0 0.0 0.00 0.00 0.00 93 1017.4
20260901095546 73 0.0 0.0 0.00 0.00 0.00 93 1017.4
20260901095046 73 0.0 0.0 0.00 0.00 0.00 93 1017.4
20260901094607 73 0.0 0.0 0.00 0.00 0.00 93 1017.3
20260901094044 73 0.0 0.0 0.00 0.00 0.00 92 1017.2
20260901093543 73 0.0 0.0 0.00 0.00 0.00 92 1017.2
20260901093104 73 0.0 0.0 0.00 0.00 0.00 92 1017.2
20260901092545 73 0.0 0.0 0.00 0.00 0.00 92 1017.2
20260901092046 73 0.0 0.0 0.00 0.00 0.00 92 1017.3
20260901091612 73 0.0 0.0 0.00 0.00 0.00 92 1017.3
20260901091044 73 0.0 0.0 0.00 0.00 0.00 93 1017.4
20260901090544 73 0.0 0.0 0.00 0.00 0.00 93 1017.4
20260901090106 73 0.0 0.0 0.00 0.00 0.00 93 1017.3
20260901085547 73 0.0 0.0 0.00 0.00 0.00 93 1017.3
20260901085047 73 0.0 0.0 0.00 0.00 0.00 93 1017.1
20260901084609 73 0.0 0.0 0.00 0.00 0.00 93 1017.2
20260901084047 73 0.0 0.0 0.00 0.00 0.00 93 1017.3
20260901083547 73 0.0 0.0 0.00 0.00 0.00 92 1017.2
20260901083106 73 0.0 0.0 0.00 0.00 0.00 92 1017.2
20260901082550 74 0.0 0.0 0.00 0.00 0.00 92 1017.2
20260901082049 74 0.0 0.0 0.00 0.00 0.00 92 1017.2
20260901081605 74 0.0 0.0 0.00 0.00 0.00 92 1017.3
20260901081050 74 0.0 0.0 0.00 0.00 0.00 92 1017.2
20260901080547 74 0.0 0.0 0.00 0.00 0.00 92 1017.3
20260901080107 74 0.0 0.0 0.00 0.00 0.00 92 1017.3
20260901075548 74 0.0 0.0 0.00 0.00 0.00 92 1017.3
20260901075048 74 0.0 0.0 0.00 0.00 0.00 92 1017.3
20260901074605 74 0.0 0.0 0.00 0.00 0.00 92 1017.4
20260901074047 74 0.0 0.0 0.00 0.00 0.00 92 1017.4
20260901073557 74 0.0 0.0 0.00 0.00 0.00 92 1017.4
20260901073106 74 0.0 0.0 0.00 0.00 0.00 92 1017.4
20260901072549 74 0.0 0.0 0.00 0.00 0.00 92 1017.5
20260901072047 74 0.0 0.0 0.00 0.00 0.00 92 1017.6
20260901071607 74 0.0 0.0 0.00 0.00 0.00 92 1017.7
20260901071047 74 0.0 0.0 0.00 0.00 0.00 92 1017.8
20260901070547 74 0.0 0.0 0.00 0.00 0.00 92 1017.8
20260901070114 74 0.0 0.0 0.00 0.00 0.00 92 1017.8
20260901065550 75 0.0 0.0 0.00 0.00 0.00 92 1017.8
20260901065047 75 0.0 0.0 0.00 0.00 0.00 92 1017.8
20260901064614 75 0.0 0.0 0.00 0.00 0.00 92 1017.9
20260901064047 75 0.0 0.0 0.00 0.00 0.00 92 1017.9
20260901063556 75 0.0 0.0 0.00 0.00 0.00 92 1017.9
20260901063103 75 0.0 0.0 0.00 0.00 0.00 92 1017.9
20260901062547 75 0.0 0.0 0.00 0.00 0.00 92 1017.9
20260901062047 75 0.0 0.0 0.00 0.00 0.00 92 1017.8
20260901061606 75 0.0 0.0 0.00 0.00 0.00 92 1017.8
20260901061049 75 0.0 0.0 0.00 0.00 0.00 92 1017.9
20260901060547 75 0.0 0.0 0.00 0.00 0.00 92 1018.0
20260901060058 75 0.0 0.0 0.00 0.00 0.00 92 1017.9
20260901055547 75 0.0 0.0 0.00 0.00 0.00 92 1018.0
20260901055047 75 0.0 0.0 0.00 0.00 0.00 92 1018.1
20260901054604 75 0.0 0.0 0.00 0.00 0.00 92 1018.1
20260901054046 75 0.0 0.0 0.00 0.00 0.00 91 1018.2
20260901053552 75 0.0 0.0 0.00 0.00 0.00 91 1018.2
20260901053106 75 0.0 0.0 0.00 0.00 0.00 91 1018.4
20260901052545 75 0.0 0.0 0.00 0.00 0.00 91 1018.4
20260901052046 75 0.0 0.0 0.00 0.00 0.00 91 1018.5
20260901051557 75 0.0 0.0 0.00 0.00 0.00 91 1018.4
20260901051044 75 0.0 0.0 0.00 0.00 0.00 91 1018.4
20260901050544 75 0.0 0.0 0.00 0.00 0.00 91 1018.5
20260901050108 75 0.0 0.0 0.00 0.00 0.00 91 1018.6
20260901045547 75 0.0 0.0 0.00 0.00 0.00 91 1018.6
20260901045046 75 0.0 0.0 0.00 0.00 0.00 91 1018.7
20260901044606 75 0.0 0.0 0.00 0.00 0.00 91 1018.7
20260901044043 75 0.0 0.0 0.00 0.00 0.00 91 1018.8
20260901043543 75 0.0 0.0 0.00 0.00 0.00 91 1018.9
20260901043101 75 0.0 0.0 0.00 0.00 0.00 90 1018.9
20260901042546 75 0.0 0.0 0.00 0.00 0.00 90 1018.9
20260901042055 75 0.0 0.0 0.00 0.00 0.00 90 1019.0
20260901041604 75 0.0 0.0 0.00 0.00 0.00 90 1019.0
20260901041044 75 0.0 0.0 0.00 0.00 0.00 90 1019.0
20260901040543 75 0.0 0.0 0.00 0.00 0.00 90 1019.1
20260901040108 76 0.0 0.0 0.00 0.00 0.00 90 1019.0
20260901035542 76 0.0 0.0 0.00 0.00 0.00 90 1019.1
20260901035046 76 0.0 0.0 0.00 0.00 0.00 89 1019.0
20260901034600 76 0.0 0.0 0.00 0.00 0.00 89 1019.0
20260901034046 76 0.0 0.0 0.00 0.00 0.00 89 1019.1
20260901033546 76 0.0 0.0 0.00 0.00 0.00 89 1019.0
20260901033106 76 0.0 0.0 0.00 0.00 0.00 89 1019.0
20260901032547 76 0.0 0.0 0.00 0.00 0.00 89 1018.9
20260901032047 76 0.0 0.0 0.00 0.00 0.00 89 1019.1
20260901031600 76 0.0 0.0 0.00 0.00 0.00 88 1019.1
20260901031046 76 0.0 0.0 0.00 0.00 0.00 88 1019.0
20260901030546 76 0.0 0.0 0.00 0.00 0.00 88 1019.0
20260901030059 77 0.0 0.0 0.00 0.00 0.00 88 1018.9
20260901025543 77 0.0 0.0 0.00 0.00 0.00 88 1018.8
20260901025043 77 0.0 0.0 0.00 0.00 0.00 88 1018.8
20260901024611 77 0.0 0.0 0.00 0.00 0.00 88 1018.9
20260901024047 77 0.0 0.0 0.00 0.00 0.00 88 1018.8
20260901023546 77 0.0 0.0 0.00 0.00 0.00 88 1018.8
20260901023059 77 0.0 0.0 0.00 0.00 0.00 87 1018.8
20260901022543 77 0.0 0.0 0.00 0.00 0.00 87 1018.9
20260901022046 78 0.0 0.0 0.00 0.00 0.00 87 1018.8
20260901021604 78 0.0 0.0 0.00 0.00 0.00 87 1018.8
20260901021043 78 0.0 0.0 0.00 0.00 0.00 87 1018.8
20260901020544 78 0.0 0.0 0.00 0.00 0.00 87 1018.9
20260901020105 78 0.0 0.0 0.00 0.00 0.00 86 1018.8
20260901015549 78 0.0 0.0 0.00 0.00 0.00 86 1018.9
20260901015043 78 0.0 0.0 0.00 0.00 0.00 86 1018.9
20260901014606 78 0.0 0.0 0.00 0.00 0.00 86 1018.7